Wetbulb
53.99 54.07 54.09 53.94 53.84 53.66 53.49 53.34 53.37 53.64 54.07 54.46 54.91 55.43 56.60 57.17 56.17 54.31 51.38 55.34 54.99 61.68 60.55 57.56 58.08 57.57 58.29 57.56 58.50 58.55 53.79 50.68 51.06 51.78 53.83 57.35 56.30 57.81 59.09 58.25 58.56 59.39 58.94 60.49 62.04
53.78 53.78 53.91 53.63 54.02 54.11 53.48 52.91 53.32 53.23 53.80 54.02 54.20 54.97 56.08 56.89 54.20 52.31 58.05 60.47 60.21 62.41 55.02 54.00 55.02 56.72 55.18 55.37 57.05 56.23 52.59 51.44 55.11 56.15 55.82 57.52 57.07 57.23 57.32 56.94 57.09 57.65 60.13 61.47 61.01
53.94 53.72 53.68 53.60 53.35 53.24 53.31 53.21 53.15 53.09 53.97 53.86 54.05 55.15 55.85 56.49 51.46 51.39 61.17 61.49 62.29 60.90 55.03 55.04 57.07 56.72 54.27 55.66 54.89 53.82 52.25 53.61 54.59 57.63 58.31 56.88 56.43 58.61 56.83 55.06 58.14 57.82 58.06 59.23 58.82
54.00 53.80 53.64 53.65 53.43 53.43 53.34 53.02 52.57 52.78 53.11 53.22 53.62 54.44 56.13 55.10 44.09 51.12 64.34 63.44 62.89 56.33 56.39 55.17 54.94 53.77 53.09 52.59 54.07 51.57 53.64 54.30 54.91 56.93 57.35 55.90 57.61 56.51 57.37 59.35 60.16 60.95 60.46 58.93 57.69
54.46 54.16 53.59 53.39 53.29 53.75 53.29 52.88 52.84 52.45 52.43 52.88 53.53 54.12 54.36 50.17 50.31 57.81 63.44 63.29 57.54 55.29 54.57 54.07 52.95 53.38 52.42 53.35 52.22 51.09 52.29 55.38 55.97 56.92 57.41 57.32 56.54 56.95 56.77 58.77 60.16 60.55 59.94 58.94 58.61
54.64 54.05 53.87 53.81 53.60 53.27 53.03 52.75 52.55 52.49 52.49 53.36 53.93 54.24 52.14 43.72 54.42 60.14 59.32 56.20 54.92 54.87 53.90 54.64 53.69 55.63 54.16 53.74 52.10 52.47 54.48 56.00 55.98 56.95 56.63 54.92 55.29 56.19 57.41 58.80 58.99 59.22 59.37 59.54 58.99
54.87 54.13 53.76 53.70 53.27 52.84 52.71 52.40 52.05 52.23 53.21 55.24 53.66 54.32 51.66 47.91 56.97 59.17 56.56 54.59 54.75 54.66 53.41 55.00 56.34 55.70 55.77 52.04 53.76 55.14 53.06 53.77 55.06 55.31 55.07 56.04 53.35 54.70 56.63 58.01 57.97 58.64 59.18 59.33 59.26
55.07 54.52 53.68 53.17 52.84 52.46 51.92 51.67 51.38 52.71 54.44 53.86 54.93 55.03 45.47 53.42 55.95 54.52 55.36 55.23 55.58 56.14 56.08 56.68 57.97 55.96 54.07 54.07 52.88 52.45 52.20 50.42 52.89 54.77 54.15 54.57 50.54 54.46 56.56 57.16 57.21 57.99 58.49 58.78 59.46
53.85 54.64 53.87 53.17 52.49 51.80 51.40 50.96 51.86 53.44 56.19 55.91 53.66 52.07 45.17 55.26 51.59 55.27 56.78 54.04 54.60 55.62 56.50 57.90 57.16 53.92 52.80 50.43 48.54 49.29 46.92 48.36 50.32 53.93 53.96 53.12 50.93 53.49 56.46 56.39 56.35 57.28 57.90 58.49 59.25
53.11 53.87 54.01 53.30 52.35 51.51 50.62 50.23 52.03 53.38 55.08 56.26 55.39 48.02 48.67 46.40 53.59 53.88 55.50 55.78 54.00 53.82 53.18 53.24 52.20 50.55 49.50 48.22 43.09 45.24 46.44 47.15 48.46 51.65 52.89 51.41 52.22 54.44 56.24 55.85 56.20 56.77 57.32 57.77 58.48
52.80 52.92 54.08 53.14 52.41 51.49 47.20 51.20 47.41 49.48 49.03 48.54 47.41 46.78 48.40 53.94 55.61 52.74 54.68 54.64 53.76 52.16 47.95 49.77 47.58 45.37 47.18 48.49 49.10 47.75 47.22 47.12 49.43 51.31 50.90 50.43 51.08 53.41 55.30 55.25 55.46 56.04 56.61 57.20 57.93
51.75 52.39 53.28 52.61 51.83 48.76 45.16 42.86 39.67 41.40 38.55 49.24 51.60 52.17 53.79 53.90 49.09 50.47 55.09 51.40 50.49 46.35 47.84 46.25 44.29 48.48 49.32 48.64 48.18 47.95 46.72 46.33 48.50 49.58 50.34 49.41 50.14 51.64 53.43 54.99 56.10 56.41 56.27 57.04 57.67
50.72 51.84 52.28 51.54 50.61 44.95 41.49 41.50 44.21 43.25 42.27 49.07 51.56 50.34 50.71 52.56 48.94 49.94 51.30 50.26 48.39 45.82 46.24 44.62 46.60 49.01 47.93 46.42 46.21 46.62 46.08 45.87 46.44 47.55 50.14 49.09 47.18 49.39 52.61 54.87 55.68 56.61 57.64 57.95 57.95
50.14 51.04 51.32 50.41 46.77 42.81 41.59 43.54 45.37 44.07 41.43 42.45 44.70 49.28 50.24 51.55 47.46 52.36 51.62 51.07 48.32 45.50 45.79 46.20 48.82 47.05 46.45 46.05 47.44 43.52 47.60 47.43 46.26 45.01 42.80 46.42 41.95 45.88 48.75 51.97 53.77 56.54 57.38 57.46 57.83
49.49 50.18 50.84 48.59 45.20 42.66 43.44 45.30 46.45 46.77 25.02 41.44 44.76 52.03 50.66 47.30 47.85 48.64 50.87 49.72 46.41 45.43 46.60 44.82 44.53 44.82 45.07 46.61 47.85 45.91 47.55 47.05 46.66 44.68 44.17 43.21 42.74 46.17 48.92 49.22 52.32 55.21 56.52 57.90 58.08
48.52 49.21 50.14 46.57 43.35 44.64 44.54 44.89 47.80 36.63 24.92 38.68 44.57 44.35 45.55 47.10 46.48 47.06 47.95 51.70 50.39 47.02 46.69 47.04 48.82 48.19 47.94 47.48 48.38 48.87 47.05 45.28 44.29 43.91 38.65 43.85 43.29 44.10 45.97 49.11 51.36 54.86 56.19 57.65 57.73
48.60 48.72 48.01 48.15 43.79 45.37 45.36 42.82 37.80 29.12 39.39 37.52 40.11 43.64 43.63 43.25 43.69 44.31 44.39 44.41 43.40 40.43 40.91 43.65 45.10 48.23 48.59 45.81 47.36 47.75 45.18 38.68 37.08 36.83 37.24 42.60 40.16 44.77 49.10 48.91 51.80 53.73 55.75 57.93 58.66
48.26 48.30 47.10 47.79 47.90 46.30 42.94 36.56 28.76 35.27 36.19 40.91 42.23 42.21 40.82 42.36 42.67 42.29 42.49 41.46 43.38 44.10 41.64 39.80 37.98 44.92 47.44 47.07 44.79 44.91 45.40 40.10 33.53 34.65 38.77 40.49 39.20 44.39 48.84 50.74 52.41 52.36 53.41 56.95 58.30
47.77 44.83 44.47 47.73 46.61 45.61 36.87 26.32 29.78 35.42 39.82 38.73 39.73 36.85 39.12 41.96 42.38 41.46 41.13 42.14 44.41 44.61 41.01 39.78 40.06 44.86 46.44 47.54 48.38 43.66 41.86 46.76 39.46 37.56 37.70 40.56 42.38 46.92 48.35 50.44 52.54 52.74 53.44 55.67 58.03
42.79 39.96 39.49 47.00 47.08 42.16 32.96 29.46 30.69 38.44 40.61 41.11 35.42 38.24 36.37 39.92 39.85 40.48 39.50 43.31 42.92 45.18 48.06 43.36 39.00 43.69 45.74 47.71 46.86 47.59 47.97 41.73 40.17 33.46 33.02 37.71 38.89 42.69 46.23 48.76 51.69 52.84 53.88 55.65 56.69
40.48 34.81 41.81 46.76 45.73 36.92 28.07 30.83 34.35 38.61 38.30 36.74 37.15 36.88 37.65 38.69 40.00 39.17 40.73 43.39 44.86 43.26 46.53 44.20 42.38 39.87 43.99 43.39 43.45 43.60 42.91 42.32 44.16 41.06 37.51 35.70 39.62 48.11 49.29 50.72 51.73 53.83 54.80 55.94 56.67
38.07 28.68 42.48 45.22 32.39 33.42 29.03 33.15 37.46 36.37 38.96 36.64 38.01 37.86 38.34 40.47 39.20 39.59 40.57 43.39 45.25 45.63 42.41 45.59 42.79 37.28 40.62 43.95 46.96 47.62 45.37 45.65 40.94 36.58 37.70 39.49 41.38 48.42 50.48 51.06 52.72 54.45 53.70 54.47 55.54
34.30 34.14 42.80 42.59 24.52 28.10 32.57 32.69 34.98 34.71 35.32 35.71 35.35 38.82 41.98 41.24 38.32 40.78 41.27 45.26 44.14 45.12 44.17 44.15 41.50 35.34 37.81 41.38 43.72 43.57 44.20 45.40 43.46 41.96 38.92 38.17 40.84 47.31 48.43 48.40 50.41 51.95 52.32 52.30 52.67
35.49 28.35 34.22 37.14 34.94 30.27 29.42 30.82 31.75 37.37 35.89 37.23 35.61 37.27 37.03 37.76 41.97 41.16 42.74 45.57 45.33 45.28 45.83 46.87 40.80 39.74 35.25 38.87 42.07 39.80 40.88 42.29 44.50 39.26 40.88 40.37 43.45 45.52 47.13 47.82 49.16 49.94 49.64 50.46 50.99
34.61 30.49 33.66 27.20 30.93 30.78 30.39 31.65 30.18 30.29 36.02 36.78 34.06 33.86 33.64 35.60 39.13 39.72 42.80 43.77 44.87 45.73 45.02 46.36 40.01 40.41 41.74 41.59 41.92 42.33 42.36 41.64 41.74 43.62 40.75 43.18 42.61 47.13 48.73 48.19 48.62 49.44 49.38 49.82 50.61
32.42 31.86 35.97 32.00 33.09 31.47 31.42 30.13 30.54 32.16 33.63 32.40 32.55 36.06 36.75 34.09 39.68 38.24 39.74 42.57 42.93 44.06 43.29 42.78 40.20 40.38 37.75 40.80 42.08 40.60 41.99 42.97 43.30 42.92 43.71 43.60 43.33 46.06 47.46 48.59 48.16 47.77 48.22 48.34 48.94
39.14 39.65 34.78 31.13 30.82 30.54 31.00 31.70 32.21 35.23 36.06 36.64 36.49 34.96 33.56 35.73 39.71 41.72 43.48 43.52 43.30 43.33 42.59 42.00 39.89 38.26 36.09 39.25 38.89 36.23 40.39 41.72 42.57 43.32 44.75 40.64 46.26 47.12 45.95 46.84 47.38 47.25 47.37 47.25 48.16
MSLP
1023.23 1022.92 1022.42 1021.97 1021.60 1021.09 1020.45 1019.94 1019.50 1019.01 1018.48 1018.17 1017.64 1017.27 1016.89 1016.51 1015.93 1015.75 1014.47 1012.59 1012.62 1012.86 1012.80 1013.23 1013.18 1013.19 1013.19 1013.19 1013.37 1013.68 1013.71 1013.70 1013.64 1013.67 1013.12 1013.23 1013.21 1013.75 1014.09 1014.49 1015.21 1015.81 1016.35 1017.02 1018.41
1023.39 1023.07 1022.69 1022.34 1021.75 1021.23 1020.85 1020.10 1019.36 1018.84 1018.33 1017.92 1017.58 1017.08 1016.69 1016.48 1015.98 1014.35 1011.75 1011.75 1012.01 1012.39 1012.81 1012.97 1013.07 1013.08 1013.16 1013.23 1013.30 1013.35 1013.60 1013.16 1013.03 1012.94 1012.61 1012.83 1012.96 1013.23 1013.74 1014.14 1014.82 1015.82 1016.94 1017.61 1018.78
1023.29 1023.21 1022.88 1022.41 1021.93 1021.44 1020.80 1020.14 1019.50 1018.81 1018.19 1017.63 1017.28 1016.92 1016.51 1016.30 1015.49 1012.12 1011.18 1011.45 1011.96 1012.03 1012.25 1012.61 1012.81 1012.88 1013.01 1013.22 1013.37 1013.38 1012.89 1012.77 1012.53 1012.49 1012.50 1012.47 1012.77 1013.09 1013.19 1013.53 1013.49 1014.17 1016.44 1017.79 1018.77
1023.43 1023.12 1022.67 1022.20 1021.66 1021.14 1020.54 1020.06 1019.45 1018.70 1018.00 1017.40 1017.03 1016.76 1016.46 1016.11 1014.09 1011.10 1010.91 1010.98 1011.62 1011.95 1012.21 1012.59 1012.77 1012.78 1012.82 1012.89 1013.05 1013.07 1012.41 1012.49 1012.11 1012.25 1012.37 1012.32 1012.40 1012.64 1012.80 1011.94 1012.84 1013.84 1015.59 1017.40 1018.53
1023.43 1023.12 1022.44 1021.87 1021.37 1020.72 1020.06 1019.37 1018.83 1018.37 1017.77 1017.15 1016.79 1016.61 1016.30 1015.34 1012.73 1010.90 1010.86 1010.91 1011.61 1011.88 1011.99 1012.39 1012.55 1012.53 1012.40 1012.47 1012.76 1012.69 1012.09 1012.06 1011.88 1011.97 1012.07 1012.18 1012.09 1012.30 1012.20 1012.85 1013.50 1014.51 1016.02 1016.98 1018.25
1023.67 1023.09 1022.51 1021.94 1021.29 1020.53 1019.62 1018.86 1018.32 1017.72 1017.05 1016.59 1016.52 1016.54 1016.00 1014.20 1011.08 1011.03 1011.04 1011.27 1011.16 1011.54 1011.89 1012.06 1012.03 1012.08 1012.07 1012.15 1012.29 1012.06 1012.05 1011.85 1011.73 1011.73 1011.85 1012.01 1012.28 1012.63 1012.29 1013.19 1014.19 1015.18 1016.14 1017.03 1017.93
1023.49 1023.04 1022.57 1022.02 1021.30 1020.38 1019.39 1018.43 1017.69 1016.98 1016.41 1015.99 1016.27 1016.31 1015.22 1012.10 1011.01 1011.15 1011.03 1011.29 1011.28 1011.20 1011.43 1011.64 1011.74 1011.98 1011.88 1011.89 1011.98 1012.02 1012.05 1011.84 1011.73 1011.80 1011.79 1011.93 1012.07 1012.05 1012.68 1013.53 1014.49 1015.43 1016.44 1017.17 1017.84
1023.24 1022.92 1022.57 1022.00 1021.12 1020.11 1018.98 1017.67 1017.14 1016.44 1016.05 1015.76 1016.01 1016.13 1013.90 1011.03 1011.09 1011.13 1010.93 1011.13 1011.19 1011.17 1011.10 1011.37 1011.65 1011.80 1011.86 1011.81 1012.01 1011.91 1012.03 1011.62 1011.65 1011.71 1011.92 1011.92 1011.46 1011.69 1012.75 1013.49 1014.45 1015.51 1016.30 1017.09 1017.67
1023.43 1022.87 1022.41 1021.85 1020.98 1019.99 1018.56 1017.11 1016.61 1016.06 1015.93 1016.01 1015.89 1015.50 1012.87 1010.75 1010.72 1010.17 1010.25 1010.53 1010.97 1011.14 1011.23 1011.41 1011.64 1011.85 1012.03 1011.77 1012.13 1012.19 1011.71 1011.76 1011.53 1011.63 1011.66 1011.84 1011.45 1011.93 1012.93 1013.58 1014.30 1015.13 1015.86 1016.69 1017.31
1023.49 1022.92 1022.43 1021.65 1020.74 1019.70 1018.18 1016.59 1016.27 1016.17 1016.15 1015.97 1015.43 1015.19 1012.18 1011.03 1010.43 1010.11 1010.11 1010.20 1010.49 1011.17 1011.42 1011.54 1011.89 1011.95 1012.04 1011.80 1011.46 1011.80 1011.85 1011.82 1011.51 1011.53 1011.68 1011.67 1011.39 1011.68 1012.56 1013.40 1013.99 1014.80 1015.44 1016.17 1016.82
1023.81 1023.23 1022.49 1021.76 1020.88 1019.82 1018.41 1016.84 1017.25 1016.93 1016.61 1016.31 1015.32 1013.97 1012.23 1011.12 1010.44 1009.95 1009.90 1010.08 1010.31 1010.91 1011.25 1011.56 1011.74 1011.36 1011.45 1011.63 1011.65 1011.72 1011.73 1011.54 1011.37 1011.49 1011.62 1011.32 1011.28 1011.40 1012.18 1013.09 1013.49 1014.38 1015.03 1015.78 1016.48
1023.95 1023.35 1022.71 1022.07 1021.19 1020.46 1019.53 1020.48 1022.43 1022.53 1019.31 1015.69 1014.42 1013.62 1012.13 1011.69 1011.32 1009.95 1009.89 1010.06 1010.18 1010.69 1011.22 1011.77 1010.99 1011.19 1011.29 1011.52 1011.62 1011.67 1011.63 1011.57 1011.47 1011.50 1011.79 1011.33 1011.11 1011.47 1012.03 1012.40 1012.83 1013.55 1014.33 1015.19 1016.20
1024.15 1023.60 1023.05 1022.20 1021.32 1021.24 1021.90 1022.21 1022.51 1022.37 1020.61 1015.04 1012.97 1011.86 1010.68 1010.89 1010.29 1009.32 1009.62 1009.54 1009.83 1010.52 1010.73 1010.76 1010.48 1010.98 1011.11 1011.39 1011.52 1011.51 1011.49 1011.51 1011.56 1011.66 1011.63 1011.31 1011.09 1011.27 1011.55 1012.03 1012.45 1012.73 1013.36 1014.30 1015.13
1024.15 1023.71 1023.23 1022.44 1021.91 1022.39 1021.79 1021.89 1021.94 1022.03 1019.80 1014.42 1011.91 1009.68 1009.39 1009.35 1009.09 1008.39 1008.39 1008.87 1009.62 1009.71 1010.54 1010.67 1010.47 1010.39 1010.67 1010.66 1010.92 1011.13 1011.19 1011.45 1011.61 1011.77 1011.30 1011.43 1010.81 1011.01 1011.15 1011.25 1011.33 1011.19 1012.04 1013.30 1014.26
1024.24 1023.72 1023.45 1023.03 1023.22 1022.91 1022.40 1021.55 1021.19 1021.33 1018.43 1012.42 1010.31 1008.76 1008.64 1008.63 1007.65 1007.58 1007.61 1008.31 1008.62 1009.20 1009.95 1009.67 1009.93 1010.16 1010.00 1009.60 1010.26 1010.43 1010.93 1011.33 1011.53 1011.76 1011.69 1011.37 1011.19 1010.54 1010.97 1010.41 1009.90 1009.77 1010.54 1012.09 1013.19
1024.19 1023.81 1023.51 1023.39 1023.38 1022.82 1022.32 1021.43 1020.92 1020.38 1016.41 1011.58 1009.43 1008.89 1009.07 1008.52 1007.86 1007.73 1007.66 1007.64 1008.13 1008.84 1009.29 1009.25 1009.52 1009.31 1008.89 1009.49 1009.84 1010.23 1011.09 1011.77 1012.14 1012.03 1011.63 1010.85 1010.71 1009.90 1009.79 1009.42 1009.28 1009.19 1009.39 1010.75 1012.08
1023.88 1023.76 1023.54 1023.37 1023.01 1022.73 1022.43 1021.75 1020.91 1018.50 1013.87 1011.02 1009.31 1008.74 1008.77 1008.46 1008.01 1007.56 1007.51 1007.46 1007.54 1008.52 1008.61 1009.29 1009.27 1008.88 1008.85 1009.40 1009.97 1010.13 1010.93 1011.69 1012.19 1012.05 1011.05 1010.92 1010.67 1009.33 1008.78 1008.91 1008.93 1008.82 1008.99 1010.00 1011.15
1023.38 1023.39 1023.09 1023.02 1022.88 1022.85 1022.83 1022.22 1019.74 1015.47 1012.94 1010.42 1009.46 1008.78 1008.53 1008.03 1007.60 1007.45 1007.33 1007.27 1007.19 1006.97 1007.65 1008.31 1008.85 1008.30 1008.19 1008.23 1008.86 1009.64 1010.18 1010.67 1010.94 1011.27 1011.29 1011.27 1009.98 1008.82 1008.41 1008.48 1008.51 1008.69 1008.98 1009.59 1010.39
1023.55 1023.18 1022.84 1022.33 1022.60 1022.89 1023.11 1021.65 1017.39 1014.27 1011.94 1010.78 1009.85 1009.46 1008.35 1007.72 1007.59 1007.19 1006.81 1006.29 1006.09 1006.14 1006.63 1007.42 1007.56 1007.80 1007.58 1007.70 1008.14 1009.38 1009.80 1010.15 1010.91 1011.84 1011.29 1010.41 1009.70 1008.71 1008.34 1008.12 1008.15 1008.25 1008.74 1009.10 1009.68
1023.67 1023.15 1022.45 1021.64 1022.06 1022.92 1022.40 1019.49 1016.68 1013.31 1011.74 1010.64 1009.58 1008.74 1008.09 1007.37 1007.33 1007.14 1006.42 1005.04 1005.45 1005.71 1005.58 1006.79 1007.58 1007.38 1007.38 1007.70 1008.11 1008.07 1009.23 1010.23 1010.77 1011.01 1010.75 1010.06 1009.33 1008.19 1007.93 1007.73 1007.81 1007.98 1008.30 1008.70 1009.32
1023.66 1022.92 1021.19 1020.86 1021.99 1022.22 1020.15 1017.91 1015.83 1013.37 1013.05 1012.05 1010.42 1009.02 1007.83 1007.51 1006.77 1006.44 1005.47 1004.89 1004.39 1005.41 1005.74 1006.46 1006.91 1007.74 1007.52 1006.77 1006.83 1008.20 1008.57 1009.34 1009.67 1010.09 1009.59 1009.39 1008.36 1007.65 1007.21 1007.19 1007.50 1007.71 1008.01 1008.56 1009.14
1023.40 1022.86 1021.37 1021.48 1022.04 1020.87 1019.19 1017.69 1016.17 1014.06 1013.53 1012.84 1011.55 1009.75 1008.67 1007.64 1006.60 1006.05 1004.97 1004.12 1003.93 1004.23 1005.17 1005.54 1006.35 1007.14 1006.81 1006.73 1006.51 1006.39 1007.19 1008.05 1008.70 1009.89 1009.74 1008.82 1007.61 1007.03 1006.99 1007.24 1007.61 1007.86 1008.44 1008.85 1009.15
1022.67 1021.95 1021.40 1021.40 1021.05 1019.23 1018.39 1017.11 1016.27 1014.70 1013.59 1012.81 1011.54 1010.27 1008.97 1007.93 1007.17 1005.63 1004.63 1003.92 1003.83 1003.89 1003.85 1004.94 1005.33 1006.44 1006.99 1007.07 1006.88 1006.45 1006.97 1007.01 1007.93 1008.52 1008.25 1008.15 1007.19 1007.14 1007.30 1007.71 1007.96 1008.35 1008.67 1008.92 1009.06
1022.20 1021.42 1020.99 1020.60 1019.57 1019.03 1018.15 1016.61 1015.31 1014.27 1013.57 1013.14 1011.72 1010.78 1009.73 1008.28 1007.02 1005.73 1004.62 1004.02 1003.89 1003.80 1003.68 1003.85 1004.38 1004.59 1004.43 1004.04 1005.65 1006.16 1006.41 1006.80 1006.95 1007.56 1007.15 1006.63 1007.03 1007.25 1007.42 1007.88 1008.35 1008.75 1009.17 1009.41 1009.46
1020.77 1020.16 1019.71 1019.05 1018.14 1017.97 1017.80 1016.55 1014.95 1014.09 1013.14 1012.38 1011.59 1010.85 1010.09 1008.70 1006.88 1005.93 1004.95 1004.39 1004.35 1004.17 1004.08 1003.89 1004.19 1004.53 1004.38 1004.65 1004.75 1004.97 1005.51 1006.10 1006.19 1005.92 1006.16 1006.21 1006.71 1006.62 1006.91 1007.84 1008.72 1009.48 1009.88 1009.95 1009.95
1019.56 1019.63 1019.20 1018.02 1017.63 1017.55 1015.73 1015.30 1014.37 1013.19 1012.68 1011.32 1010.73 1009.72 1009.20 1008.74 1007.00 1006.32 1005.79 1005.04 1004.71 1004.79 1004.44 1004.47 1004.35 1004.58 1004.83 1004.90 1004.84 1004.79 1004.80 1004.97 1005.25 1005.60 1005.75 1006.23 1006.39 1006.98 1007.74 1008.62 1009.49 1010.01 1010.34 1010.35 1010.47
1018.62 1018.66 1018.90 1017.17 1016.76 1016.08 1014.79 1013.99 1013.00 1012.64 1011.81 1010.79 1009.69 1009.21 1008.49 1007.42 1007.43 1007.22 1006.79 1005.99 1005.85 1005.51 1004.75 1004.74 1004.71 1004.99 1004.93 1004.95 1005.33 1005.18 1003.35 1004.11 1004.68 1005.10 1005.14 1005.73 1006.03 1007.18 1008.31 1009.03 1009.83 1010.37 1010.85 1011.10 1011.02
Wind_Speed
21 21 22 22 21 21 22 21 20 20 19 18 17 16 15 15 13 2 7 11 9 10 7 4 3 2 2 3 2 2 1 2 3 5 2 5 8 3 2 8 5 8 3 4 23
21 21 21 21 21 20 21 22 21 21 20 19 17 16 13 12 4 9 10 9 10 11 8 4 3 4 3 2 2 2 2 4 4 4 3 6 7 10 7 5 6 5 7 17 22
22 21 21 21 21 21 21 21 21 22 21 19 17 15 13 8 4 7 1 11 12 12 6 4 5 3 3 2 3 4 5 3 5 9 5 4 5 7 6 7 10 15 17 20 21
20 22 23 23 23 22 20 19 21 22 23 21 18 15 12 1 5 1 5 10 15 9 8 6 5 5 4 6 5 4 8 6 4 6 7 7 5 6 12 12 3 9 21 21 21
17 19 22 24 25 24 24 23 21 21 21 22 17 11 3 2 11 1 5 12 12 9 11 6 5 5 6 5 6 6 4 3 6 5 6 8 9 6 12 2 4 17 20 21 19
16 18 20 22 24 25 26 26 23 22 20 18 13 5 3 5 2 3 9 12 11 8 8 8 7 6 3 4 6 3 4 3 3 6 3 6 3 6 2 5 9 14 16 17 19
17 18 19 21 24 26 27 28 25 23 20 11 5 4 2 13 4 6 5 5 6 4 9 5 5 4 4 3 1 3 3 2 4 4 3 6 3 8 1 7 9 11 12 14 16
20 19 19 21 24 27 30 31 25 22 11 3 8 3 8 3 2 4 4 3 5 3 3 5 4 2 3 3 3 2 1 3 4 4 1 4 10 6 3 8 9 10 11 14 17
21 20 21 22 25 28 32 32 23 6 3 7 4 2 9 7 3 6 7 6 6 2 2 5 4 3 2 5 2 2 5 5 4 2 4 4 4 1 4 7 8 10 11 13 14
22 22 20 23 26 29 33 27 8 3 3 4 3 2 5 3 4 1 4 10 5 7 4 3 3 4 3 5 10 5 4 3 5 3 3 4 11 6 7 8 8 10 11 13 14
22 23 19 22 26 31 16 6 8 3 7 5 7 7 5 8 3 2 3 6 5 4 7 4 7 13 10 7 4 5 4 4 4 2 3 5 10 8 6 8 12 9 11 12 13
21 22 20 19 24 17 6 8 5 7 13 11 16 15 16 3 5 3 7 8 5 5 5 4 14 11 7 8 7 7 6 6 5 3 7 2 7 6 5 7 13 11 12 13 12
21 20 21 19 19 5 4 7 5 4 6 10 9 8 8 13 12 11 9 4 5 8 13 11 5 9 9 8 9 7 9 7 8 0 5 2 4 5 2 8 9 11 12 13 16
20 19 19 17 5 6 3 10 8 4 6 9 7 10 8 9 7 10 12 7 5 16 10 11 6 13 10 11 11 10 11 7 7 3 7 2 5 5 4 9 9 14 13 13 15
18 19 17 7 4 4 7 13 11 3 6 4 4 0 2 8 9 10 6 5 12 8 8 9 11 13 13 17 13 9 6 10 8 7 4 4 5 2 2 8 15 13 13 12 16
17 17 16 1 1 4 9 12 1 1 11 7 2 3 4 3 2 3 5 4 4 7 2 8 3 11 12 5 13 7 6 4 3 3 7 7 7 5 5 7 5 6 10 11 15
15 16 12 2 5 4 6 5 4 5 3 7 7 6 5 7 5 6 12 13 12 12 16 4 5 4 4 11 5 6 6 2 4 5 6 4 6 7 5 8 10 11 8 6 12
20 17 6 5 3 2 3 1 10 13 16 2 1 1 7 9 8 8 12 15 7 6 10 15 13 11 6 7 11 10 12 6 10 6 6 2 6 4 4 5 9 10 9 3 10
15 4 3 3 6 2 2 6 14 13 6 10 19 8 6 6 5 8 11 18 19 14 13 13 18 3 7 6 10 5 9 4 6 3 3 5 4 8 4 7 6 6 5 7 8
4 5 6 6 9 3 5 17 11 19 6 4 16 13 12 8 9 9 11 10 11 15 8 7 7 6 7 5 1 12 12 6 0 8 8 5 4 7 5 8 5 6 8 8 7
1 5 4 7 7 5 14 12 25 24 9 8 11 7 13 15 8 8 7 7 14 12 7 8 5 2 8 13 17 7 6 2 5 3 10 9 6 8 11 11 9 7 8 5 4
2 5 1 4 7 6 16 11 14 21 10 14 7 7 10 6 19 10 15 13 11 17 20 11 6 6 14 2 7 19 14 9 7 7 1 2 8 4 12 8 8 7 3 3 5
3 5 4 5 8 13 11 25 21 21 14 18 15 12 5 5 8 9 8 5 8 16 17 10 6 8 6 4 3 9 10 11 5 4 12 9 6 2 5 7 9 7 4 4 5
3 4 4 6 11 18 17 21 20 15 21 24 13 12 13 17 13 6 5 4 6 8 8 19 6 20 18 17 6 6 6 6 14 7 10 12 10 7 10 11 10 8 4 4 6
5 5 5 6 8 16 19 14 15 13 18 16 21 20 15 10 7 6 4 2 0 4 5 12 14 9 17 6 11 16 15 14 15 13 13 11 13 15 13 13 8 4 1 1 3
4 3 5 10 15 13 15 17 24 22 17 20 22 19 19 20 6 3 6 3 1 3 4 2 6 8 8 12 11 13 16 19 17 9 11 8 9 2 6 9 6 4 3 3 4
4 5 6 11 12 9 9 19 21 16 16 24 19 23 27 22 13 10 6 6 6 5 4 7 7 6 13 8 9 10 17 16 10 8 13 12 8 15 9 10 7 5 3 2 3
Wind_Direction
11 9 5 1 359 355 348 343 341 338 335 333 333 336 335 332 315 202 243 218 187 168 98 124 77 81 68 97 91 150 67 225 211 184 210 166 191 147 114 136 186 180 162 112 145
10 6 3 359 354 350 345 339 334 332 329 328 328 329 330 334 293 246 243 213 192 155 148 156 141 132 107 94 79 125 202 232 209 204 226 187 204 167 178 161 191 166 78 134 148
4 2 359 357 353 346 339 333 329 326 323 322 323 324 322 331 290 243 96 196 181 158 141 149 126 132 136 141 163 162 233 211 239 216 216 192 209 176 176 205 205 205 155 156 158
358 354 355 352 348 341 335 329 326 323 319 316 315 318 314 294 259 169 317 190 167 145 120 125 145 153 161 181 176 223 244 242 261 206 184 172 156 203 209 237 249 199 155 159 170
352 349 349 347 344 338 333 327 323 317 313 310 307 308 277 229 255 324 73 137 140 144 157 151 156 161 192 185 159 228 274 197 242 198 195 155 204 212 233 288 70 137 154 165 168
347 347 346 342 339 336 331 324 322 315 312 308 292 280 218 253 239 52 118 139 154 147 158 150 189 200 183 197 197 202 244 235 222 184 209 191 210 193 217 155 132 150 163 168 174
344 345 342 340 336 332 328 322 320 314 312 308 231 222 222 240 123 131 125 174 171 169 157 190 160 183 158 178 192 144 216 261 209 182 201 187 199 230 78 169 162 167 169 173 179
340 342 341 338 334 331 325 319 320 313 309 148 163 244 248 250 177 247 201 174 181 182 126 157 159 204 232 129 45 140 74 206 145 169 54 245 259 277 152 182 184 177 175 177 186
345 337 339 338 334 332 324 317 316 326 19 145 146 199 263 309 252 227 173 170 147 159 140 115 144 187 153 145 164 38 190 210 298 168 138 215 267 287 195 214 202 190 185 181 187
349 342 338 337 334 331 324 311 285 305 202 232 260 319 266 311 304 309 199 155 147 130 109 140 97 196 151 175 203 171 195 212 234 138 183 197 256 262 213 222 228 204 192 186 194
346 347 339 338 334 331 336 353 7 359 16 279 299 282 270 303 263 268 174 149 121 127 166 186 195 204 187 180 168 178 192 215 236 233 261 241 261 269 245 226 238 211 206 196 201
345 346 343 335 331 343 345 66 66 279 305 279 256 253 261 283 293 270 156 163 148 173 133 152 219 208 178 171 169 181 194 222 284 261 223 202 272 289 262 244 240 228 214 200 189
347 344 343 332 330 33 0 83 306 285 257 281 227 227 220 173 210 238 171 159 158 174 188 202 194 181 173 169 177 198 205 216 240 211 227 228 248 260 243 255 252 239 228 204 194
344 343 350 333 47 330 336 330 320 200 281 269 236 246 187 163 239 198 179 156 193 194 178 220 199 178 185 191 180 204 210 206 230 256 261 274 251 240 258 278 255 251 227 203 196
341 340 356 4 301 337 313 318 322 170 318 241 214 216 168 201 148 222 175 120 196 167 167 203 177 176 199 193 182 218 162 210 233 222 241 192 234 209 302 264 256 262 240 204 200
336 335 342 305 327 273 313 310 212 66 249 291 213 199 155 251 272 98 162 112 151 164 195 194 184 200 199 156 174 148 165 81 83 170 229 203 217 220 206 233 273 269 254 199 193
329 328 328 296 298 325 328 338 185 195 256 243 231 174 203 202 230 180 184 177 172 182 206 151 201 199 143 188 170 171 145 200 202 201 229 181 178 252 238 243 253 277 284 208 192
320 320 271 231 282 356 352 181 209 231 234 40 11 124 204 168 221 197 169 199 231 164 172 198 213 187 174 190 185 183 186 188 208 203 211 158 222 224 219 263 273 270 273 260 193
319 309 293 191 181 176 194 206 208 223 220 233 258 280 251 221 227 183 201 210 200 190 181 193 218 194 199 167 158 169 200 166 106 44 182 191 253 268 237 262 275 261 251 245 217
311 291 258 221 164 163 217 222 241 236 289 319 224 214 240 219 187 203 176 197 202 199 183 182 204 202 174 133 114 196 155 153 126 170 223 203 240 216 212 224 250 247 234 249 226
313 291 256 168 137 205 228 227 232 244 294 269 268 281 237 241 220 207 220 227 193 181 181 146 135 175 149 203 185 160 176 106 128 173 221 228 227 213 200 201 209 222 221 225 239
198 261 123 126 223 241 223 230 246 258 256 255 297 271 262 266 233 231 218 214 179 162 196 183 139 172 208 156 220 206 193 184 185 188 221 233 216 190 219 222 211 204 193 224 246
230 258 181 131 246 234 249 247 249 260 257 236 259 234 268 256 245 209 221 232 172 176 183 176 188 180 201 215 191 195 194 191 139 129 199 215 207 202 215 217 213 198 211 257 289
216 254 228 210 239 242 257 249 245 254 245 256 257 282 283 269 260 271 224 227 192 210 158 168 155 202 207 218 140 180 168 177 191 203 207 230 219 209 211 209 194 179 205 280 287
195 224 217 250 240 234 246 255 262 244 235 216 246 246 251 267 243 229 211 202 257 168 144 169 211 204 211 180 193 205 198 180 200 209 206 217 212 215 211 191 170 145 133 207 4
207 201 217 253 261 266 218 229 238 251 245 224 230 231 230 234 243 116 10 11 289 214 151 201 203 167 187 197 185 207 209 196 201 201 231 216 220 168 123 128 140 131 126 61 10
193 218 245 257 276 280 257 235 239 225 240 238 227 227 242 246 253 286 271 278 262 296 196 165 144 151 213 189 190 250 209 194 194 190 198 203 206 160 160 146 140 120 97 83 354